Valley City, ND

7:24 AM CST on December 09, 2019 (GMT -0600)
Valley City

Weather History for KBAC - October, 2019

Change the Weather History Date:

Wednesday, October 23, 2019

  Actual Average (KJMS) Record (KJMS)
Temperature  
Mean Temperature 34 °F -  
Max Temperature 39 °F 53 °F 83 °F (1918)
Min Temperature 28 °F 30 °F 2 °F (1936)
Degree Days  
Heating Degree Days 32    
Moisture  
Dew Point 27 °F    
Average Humidity 79    
Maximum Humidity 100    
Minimum Humidity 52    
Precipitation  
Precipitation 0.00 in - - ()
Sea Level Pressure  
Sea Level Pressure 30.04 in    
Wind  
Wind Speed 11 mph (NW)    
Max Wind Speed 18 mph    
Max Gust Speed 26 mph    
Visibility 10 miles    
Events      
Averages and records for this station are not official NWS values.
T = Trace of Precipitation, MM = Missing Value Source: NWS Daily Summary

Daily Weather History Graph

Daily Weather History Graph

Search for Another Location

Airport or City:

Astronomy

Oct. 23, 2019 Rise Set
Actual Time 8:01 AM CDT 6:30 PM CDT
Civil Twilight 7:30 AM CDT 7:01 PM CDT
Nautical Twilight 6:54 AM CDT 7:37 PM CDT
Astronomical Twilight 6:19 AM CDT 8:12 PM CDT
Moon 1:53 AM CDT (10/23) 4:47 PM CDT (10/23)
Length of Visible Light 11h 31m
Length of Day
10h 29m
Waning Crescent, 26% of the Moon is Illuminated
Oct 23
Waning Crescent
Oct 27
New
Nov 4
First Quarter
Nov 12
Full
Nov 19
Last Quarter

Hourly Weather History & Observations

Time (CDT) Temp. Windchill Dew Point Humidity Pressure Visibility Wind Dir Wind Speed Gust Speed Precip Events Conditions
12:15 AM 30.2 °F 21.9 °F 28.4 °F 93% 29.77 in 10.0 mi WNW 9.2 mph - N/A   Clear
12:55 AM 28.4 °F 19.1 °F 28.4 °F 100% 29.76 in 10.0 mi NW 10.4 mph - N/A   Clear
1:55 AM 28.4 °F 21.2 °F 28.4 °F 100% 29.78 in 10.0 mi NW 6.9 mph - N/A   Clear
2:35 AM 28.4 °F 20.4 °F 28.4 °F 100% 29.80 in 10.0 mi NW 8.1 mph - N/A   Clear
2:55 AM 28.4 °F 19.1 °F 28.4 °F 100% 29.80 in 10.0 mi NW 10.4 mph - N/A   Clear
3:15 AM 28.4 °F 19.1 °F 28.4 °F 100% 29.81 in 10.0 mi NW 10.4 mph - N/A   Clear
3:35 AM 28.4 °F 18.5 °F 28.4 °F 100% 29.82 in 10.0 mi NW 11.5 mph - N/A   Clear
8:15 AM 28.4 °F 17.5 °F 28.4 °F 100% 29.88 in 10.0 mi North 13.8 mph - N/A   Mostly Cloudy
8:35 AM - - - N/A% 29.89 in 10.0 mi North 15.0 mph - N/A   Overcast
8:55 AM 30.2 °F 19.3 °F 30.2 °F 100% 29.90 in 10.0 mi NNW 15.0 mph - N/A   Overcast
9:15 AM 30.2 °F 20.8 °F 30.2 °F 100% 29.91 in 10.0 mi NNW 11.5 mph - N/A   Overcast
9:35 AM 30.2 °F 19.3 °F 30.2 °F 100% 29.93 in 10.0 mi North 15.0 mph 20.7 mph N/A   Overcast
9:55 AM 30.2 °F 18.9 °F 30.2 °F 100% 29.94 in 10.0 mi North 16.1 mph - N/A   Overcast
10:15 AM 32.0 °F 23.0 °F 32.0 °F 100% 29.95 in 10.0 mi NNW 11.5 mph - N/A   Overcast
10:35 AM 32.0 °F 22.1 °F 32.0 °F 100% 29.95 in 10.0 mi NNW 13.8 mph - N/A   Overcast
11:35 AM 32.0 °F 22.5 °F 30.2 °F 93% 29.99 in 10.0 mi NNW 12.7 mph 19.6 mph N/A   Overcast
11:55 AM 33.8 °F 24.8 °F 30.2 °F 87% 30.00 in 10.0 mi North 12.7 mph - N/A   Overcast
12:15 PM 33.8 °F 24.8 °F 30.2 °F 87% 30.00 in 10.0 mi NNW 12.7 mph - N/A   Overcast
12:35 PM 33.8 °F 24.3 °F 30.2 °F 87% 30.01 in 10.0 mi NNW 13.8 mph - N/A   Overcast
12:55 PM 33.8 °F 24.8 °F 30.2 °F 87% 30.02 in 10.0 mi NNW 12.7 mph - N/A   Overcast
1:15 PM 35.6 °F 25.9 °F 28.4 °F 75% 30.02 in 10.0 mi NNW 16.1 mph - N/A   Overcast
1:35 PM 35.6 °F 26.6 °F 28.4 °F 75% 30.02 in 10.0 mi NNW 13.8 mph - N/A   Overcast
1:55 PM 37.4 °F 28.5 °F 28.4 °F 70% 30.03 in 10.0 mi NNW 15.0 mph - N/A   Overcast
2:15 PM 37.4 °F 29.3 °F 28.4 °F 70% 30.03 in 10.0 mi NNW 12.7 mph 19.6 mph N/A   Overcast
2:35 PM 37.4 °F 28.2 °F 28.4 °F 70% 30.03 in 10.0 mi NNW 16.1 mph - N/A   Overcast
2:55 PM 37.4 °F 28.9 °F 26.6 °F 65% 30.04 in 10.0 mi NW 13.8 mph 19.6 mph N/A   Overcast
3:15 PM 37.4 °F 28.9 °F 24.8 °F 60% 30.04 in 10.0 mi North 13.8 mph 21.9 mph N/A   Overcast
3:35 PM 37.4 °F 29.3 °F 24.8 °F 60% 30.05 in 10.0 mi NNW 12.7 mph 19.6 mph N/A   Mostly Cloudy
3:55 PM 39.2 °F 30.8 °F 24.8 °F 56% 30.06 in 10.0 mi North 15.0 mph - N/A   Mostly Cloudy
4:15 PM 39.2 °F 29.8 °F 24.8 °F 56% 30.06 in 10.0 mi North 18.4 mph - N/A   Mostly Cloudy
4:35 PM 39.2 °F 30.5 °F 24.8 °F 56% 30.07 in 10.0 mi NW 16.1 mph 26.5 mph N/A   Mostly Cloudy
4:55 PM 39.2 °F 30.2 °F 23.0 °F 52% 30.08 in 10.0 mi NW 17.3 mph - N/A   Mostly Cloudy
5:15 PM 37.4 °F 28.5 °F 23.0 °F 56% 30.09 in 10.0 mi NNW 15.0 mph - N/A   Partly Cloudy
5:35 PM 37.4 °F 28.2 °F 23.0 °F 56% 30.10 in 10.0 mi NNW 16.1 mph - N/A   Partly Cloudy
6:15 PM 37.4 °F 29.3 °F 23.0 °F 56% 30.13 in 10.0 mi NNW 12.7 mph 19.6 mph N/A   Mostly Cloudy
6:35 PM 35.6 °F 25.9 °F 23.0 °F 60% 30.14 in 10.0 mi North 16.1 mph - N/A   Overcast
6:55 PM 35.6 °F 26.2 °F 23.0 °F 60% 30.16 in 10.0 mi NNW 15.0 mph - N/A   Overcast
7:15 PM 35.6 °F 27.1 °F 23.0 °F 60% 30.17 in 10.0 mi NNW 12.7 mph - N/A   Overcast
7:35 PM 35.6 °F 27.1 °F 21.2 °F 56% 30.18 in 10.0 mi North 12.7 mph - N/A   Overcast
7:55 PM 35.6 °F 29.2 °F 23.0 °F 60% 30.19 in 10.0 mi NNW 8.1 mph - N/A   Overcast
8:15 PM 35.6 °F 29.9 °F 24.8 °F 65% 30.19 in 10.0 mi NNW 6.9 mph - N/A   Overcast
8:35 PM 33.8 °F 29.6 °F 24.8 °F 70% 30.19 in 10.0 mi North 4.6 mph - N/A   Overcast
8:55 PM 30.2 °F 25.4 °F 23.0 °F 75% 30.19 in 10.0 mi West 4.6 mph - N/A   Overcast
9:15 PM 30.2 °F 24.3 °F 26.6 °F 86% 30.20 in 10.0 mi West 5.8 mph - N/A   Overcast
9:35 PM 33.8 °F 27.7 °F 26.6 °F 75% 30.20 in 10.0 mi West 6.9 mph - N/A   Overcast
9:55 PM 32.0 °F 24.8 °F 26.6 °F 80% 30.20 in 10.0 mi West 8.1 mph - N/A   Overcast
10:15 PM 33.8 °F 27.7 °F 28.4 °F 81% 30.20 in 10.0 mi West 6.9 mph - N/A   Overcast
10:35 PM 33.8 °F 27.7 °F 28.4 °F 81% 30.21 in 10.0 mi WSW 6.9 mph - N/A   Overcast
10:55 PM 33.8 °F 27.0 °F 30.2 °F 87% 30.21 in 10.0 mi WSW 8.1 mph - N/A   Overcast
11:15 PM 33.8 °F 27.7 °F 28.4 °F 81% 30.21 in 10.0 mi WSW 6.9 mph - N/A   Overcast
11:35 PM 33.8 °F 28.6 °F 28.4 °F 81% 30.21 in 10.0 mi WSW 5.8 mph - N/A   Overcast
11:55 PM 32.0 °F 26.4 °F 28.4 °F 87% 30.21 in 10.0 mi WSW 5.8 mph - N/A   Scattered Clouds